Content
SEND FEEDBACK

Daily
Averages
Monthly
Summary
United States of America

LIDGERWOOD, NORTH DAKOTA


Home > North America > United States > North Dakota
Elevation: 1150 feet     Latitude: 46 04N     Longitude: 097 10W

WEATHER
 
SELECT A DAY
Number of Records: 135,829;   Date Range: 8/27/98 - 7/27/14
 
SHARE

PRINT THIS DATA

[ ← Previous Day ]
WEATHER ALMANAC - JANUARY 3, 2013
[ Next Day → ]
[ °C ]   °F
Weather ElementAverageHighLow
Temperature17.6 °F28.9 °F (11:56 pm)6.1 °F (1:56 am)
Dewpoint11 °F17.1 °F (7:56 pm)1 °F (2:56 am)
Humidity76 %84 % (5:56 am)54 % (11:56 pm)
Barometer30.26 in30.39 in (4:56 am)30.02 in (11:56 pm)
Wind Speed14.8 mph35.7 mph (10:56 pm)
Wind Gust41.4 mph (9:56 pm)
Weather ElementAverage
Wind DirectionWSW (255.2 °)

Weather ElementTotal
Precipitation---
Heating Degree Days47.5 (Base 65)
Averaged from 23 records on January 3, 2013
WEATHER CONDITIONS BREAKOUT
WIND DIRECTION BREAKOUT
WEATHER BY HOUR - JANUARY 3, 2013
[ °C ]   °F
Local TimeTemperatureDewpointHumidityBarometerVisibilityWind DirectionWind SpeedGust SpeedPrecipitationEventsConditions
1:56 AM6.1 °F1.9 °F83 %30.34 inNNW (340°)19.6 mph
2:56 AM6.1 °F1.0 °F80 %30.35 inNNW (330°)19.6 mph
3:56 AM6.1 °F1.0 °F80 %30.38 inNNW (340°)17.3 mph
4:56 AM7.0 °F1.9 °F80 %30.39 inNNW (330°)12.7 mph
5:56 AM7.0 °F3.0 °F84 %30.38 inNNW (330°)9.2 mph
6:56 AM12.0 °F7.0 °F80 %30.38 inNW (320°)9.2 mph
7:56 AM12.9 °F8.1 °F81 %30.38 inNW (310°)6.9 mph
8:56 AM12.9 °F8.1 °F81 %30.39 inCalm
9:56 AM15.1 °F10.0 °F80 %30.38 inCalm
10:56 AM18.0 °F12.0 °F78 %30.37 inWNW (300°)4.6 mph
11:56 AM21.0 °F14.0 °F74 %30.32 inWNW (290°)6.9 mph
12:56 PM21.9 °F15.1 °F75 %30.29 inWest (280°)13.8 mph
1:56 PM23.0 °F15.1 °F72 %30.27 inWest (280°)12.7 mph18.4 mph
2:56 PM21.9 °F15.1 °F75 %30.26 inWest (280°)11.5 mph
3:56 PM21.0 °F15.1 °F78 %30.27 inWest (280°)15.0 mph
4:56 PM21.0 °F15.1 °F78 %30.24 inWSW (250°)11.5 mph
5:56 PM21.9 °F15.1 °F75 %30.20 inVariable4.6 mph
6:56 PM21.9 °F16.0 °F78 %30.15 inWest (270°)20.7 mph28.8 mph
7:56 PM25.0 °F17.1 °F72 %30.14 inWest (260°)29.9 mph35.7 mph
8:56 PM24.1 °F16.0 °F71 %30.11 inWest (270°)19.6 mph29.9 mph
9:56 PM25.0 °F16.0 °F69 %30.04 inWest (260°)33.4 mph41.4 mph
10:56 PM25.0 °F16.0 °F69 %30.04 inWest (270°)35.7 mph41.4 mph
11:56 PM28.9 °F14.0 °F54 %30.02 inWest (280°)26.5 mph35.7 mph
Hourly data recorded from K8D3, located miles away from Lidgerwood, North Dakota







STORIES FROM OUR PARTNERS